Regional Weather Roundup
Issued by NWS Wakefield, VA

Home | Current Version | Previous Version | Text Only | Print | Product List | Glossary On
Versions: 1 2 3 4 5 6 7 8 9 10 11 12 13 14 15 16 17 18 19 20 21 22 23 24 25 26 27 28 29 30 31 32 33 34 35 36 37 38 39 40 41 42 43 44 45 46 47 48 49 50
000
ASUS41 KAKQ 210914
RWRAKQ

REGIONAL WEATHER ROUNDUP
NATIONAL WEATHER SERVICE WAKEFIELD VA
500 AM EDT TUE APR 21 2015

Note: "fair" indicates few or no clouds below 12,000 feet with no
significant weather and/or obstructions to visibility. * = Denotes
station may not report precipitation (e.g., rain,snow,etc.),
thunder or fog.

VAZ042-051-052>054-056-211000-
NORTHERN VIRGINIA

CITY           SKY/WX    TMP DP  RH WIND       PRES   REMARKS
WASH NATIONAL  LGT RAIN  60  46  59 NW18G31   29.67R
DULLES         CLOUDY    57  43  59 NW20G30   29.69R
FORT BELVOIR   LGT RAIN  58  49  72 NW14      29.67R
QUANTICO       CLOUDY    60  46  59 N21G28    29.68R
FREDERICKSBRG* CLOUDY    63  55  75 W10       29.67R
STAFFORD*      CLOUDY    58  32  36 NW14      29.72R
WARRENTON      CLOUDY    59  47  64 NW13G20   29.70R
CULPEPER*      CLOUDY    61  45  55 NW14G21   29.71R
MANASSAS*      CLOUDY    57  46  67 NW14      29.69R
LEESBURG*      CLOUDY    57  45  62 W22G31    29.70R
WINCHESTER     CLOUDY    54  32  43 W13       29.73R
FRONT ROYAL*   CLOUDY    54  37  54 W3G20     29.72R
LURAY*         FAIR      54  36  50 W8G20     29.74R
$$

VAZ048-049-060>072-079>083-211000-
CENTRAL AND SOUTH CENTRAL VIRGINIA

CITY           SKY/WX    TMP DP  RH WIND       PRES   REMARKS
RICHMOND       MOCLDY    65  52  62 W10       29.68R
CHESTERFIELD*  NOT AVBL
PETERSBURG*    PTCLDY    63  54  73 W7        29.70R
HANOVER        CLOUDY    63  52  67 W12       29.69R
TAPPAHANNOCK*  PTCLDY    64  55  73 SW5       29.67R
QUINTON*       PTSUNNY   63  57  81 W6        29.67R
CHARLOTTSVILLE PTCLDY    57  41  55 VRB7      29.72R
GORDONSVILLE*  PTSUNNY   58  40  52 W7        29.71R
ORANGE*        MOCLDY    59  43  55 W9        29.73R
LOUISA*        MOCLDY    61  45  55 W10G16    29.70R
BUMPASS*       PTSUNNY   61  46  58 W7        29.70R
FARMVILLE*     CLOUDY    60  44  55 W5        29.73R
CREWE*         FAIR      60  43  52 W12       29.72R
FORT PICKETT*  CLOUDY    60  48  65 W12G18    29.72R
CHASE CITY*    PTSUNNY   61  47  59 W9        29.76R
CLARKSVILLE*   PTSUNNY   57  46  67 W5        29.75R
SOUTH HILL*    MOCLDY    58  48  68 W7        29.79R
LAWRENCEVILLE* FAIR      58  54  85 W3        29.72R
EMPORIA*       CLEAR     57  55  94 CALM      29.73R
$$

VAZ088>098-211000-
SOUTHEAST VIRGINIA

CITY           SKY/WX    TMP DP  RH WIND       PRES   REMARKS
NORFOLK        CLOUDY    64  54  69 SW14      29.66R
VIRGINIA BEACH CLOUDY    66  54  65 SW16      29.66R
NORFOLK NAVAL  CLOUDY    66  56  70 SW10G18   29.68R
WEST POINT*    PTCLDY    66  60  81 W7        29.67R
SALUDA*        FAIR      65  60  84 W5        29.64S
NEWPORT NEWS   CLOUDY    66  59  78 SW13      29.67R
LANGLEY AFB    CLOUDY    63  57  82 SW13      29.65R
FORT EUSTIS    MOCLDY    64  64  98 SW8       29.65R
WILLIAMSBURG*  MOCLDY    66  63  88 W9        29.68R
HR EXEC AP*    PTSUNNY   61  55  82 SW8       29.69S
FRANKLIN*      MOCLDY   N/A N/A N/A SW6       29.71R
WAKEFIELD      PTCLDY    63  59  87 SW6       29.68R
$$

VAZ020-022-025-037-045-211000-
WEST CENTRAL AND SOUTHWEST VIRGINIA

CITY           SKY/WX    TMP DP  RH WIND       PRES   REMARKS
STAUNTON*      MOCLDY    51  37  58 NW8       29.77R
WAYNESBORO*    FAIR      51  37  60 W5        29.75R
HOT SPRINGS VA CLOUDY    40  34  79 W21G33    29.73R
LYNCHBURG      CLEAR     54  35  48 VRB7      29.77R
DANVILLE       PTCLDY    56  41  57 W6        29.79R
SOUTH BOSTON*  FAIR      58  43  57 NW10      29.78R
MARTINSVILLE   CLEAR     52  37  56 NW3       29.83R
ROANOKE        CLEAR     53  35  50 W16G26    29.80R
BLACKSBURG     CLOUDY    47  38  70 W10       29.83R
DUBLIN*        MOCLDY    49  40  71 W6        29.83R
MARION*        MOCLDY    47  37  69 W17       29.84S
HILLSVILLE*    PTCLDY    45  37  74 W7        29.82S
RICHLANDS*     CLOUDY    45  38  79 W10       29.85R
WISE*          MOCLDY    45  36  70 W13G20    29.88S
ABINGDON*      CLOUDY    49  45  86 W6        29.86S
$$

MDZ021>025-VAZ099-100-211000-
SOUTHERN MARYLAND AND THE DELMARVA PENINSULA

CITY           SKY/WX    TMP DP  RH WIND       PRES   REMARKS
PATUXENT RIVER MOCLDY    61  54  77 NW7       29.64R
BAY BRIDGE APT   N/A    N/A N/A N/A CALM      29.64S
LEONARDTOWN    MOCLDY    61  52  72 CALM      29.67R
DOVER          CLOUDY    59  59 100 S5        29.58S
GEORGETOWN     CLOUDY    63  55  75 VRB7      29.63R
EASTON         MOCLDY    59  59 100 CALM      29.67S
CAMBRIDGE      CLOUDY    61  54  77 CALM      29.63S
SALISBURY      MOCLDY    62  54  74 NW9       29.63R
OCEAN CITY     MOCLDY    67  60  78 W12G18    29.61R
WALLOPS ISLAND CLOUDY    68  61  78 W13G22    29.63S
ACCOMACK*      CLOUDY    66  59  77 W9G16     29.64S
$$

NCZ012>017-030>032-211000-
NORTH CENTRAL AND EASTERN NORTH CAROLINA

CITY           SKY/WX    TMP DP  RH WIND       PRES   REMARKS
ROANOKE RAPIDS FAIR      57  55  94 W7        29.73R
RALEIGH        MOCLDY    59  54  83 VRB3      29.79R
ELIZABETH CITY LGT RAIN  67  61  81 W9        29.70R
AHOSKIE*         N/A     58  57  95 CALM      29.73S
EDENTON*       LGT RAIN  64  58  78 W8G21     29.72R
CURRITUCK*     CLOUDY    68  60  75 SW7       29.70S
KILL DEVIL HLS MOCLDY    69  62  78 W14G25    29.69S
MANTEO         MOCLDY    69  62  78 W15       29.71S
CAPE HATTERAS  PTCLDY    66  61  84 W17G29    29.73S
TARBORO*       CLOUDY    62  59  89 W5        29.74R
GOLDSBORO      MOCLDY    66  62  87 SW10      29.72R
WASHINGTON     CLOUDY    66  62  87 SW6       29.73R
GREENVILLE     MOCLDY    66  63  88 W6        29.76R
NEW BERN       CLEAR     67  60  78 SW10      29.76R
WILMINGTON     CLEAR     65  59  81 SW12      29.78S
$$

VAZ048-211000-
ELSEWHERE

CITY           SKY/WX    TMP DP  RH WIND       PRES   REMARKS
HARRISBURG PA  LGT RAIN  56  48  74 NW16      29.64R
BALTIMORE      MOCLDY    58  52  80 W9        29.65R
ANNAPOLIS      MOCLDY    59  55  87 W5        29.64R
ANDREWS AFB    MOCLDY    58  47  66 NW21G29   29.65R
PHILADELPHIA   LGT RAIN  59  57  93 S5        29.59S FOG
HENDERSON NC   CLEAR     57  45  63 NW6       29.77R
GREENSBORO     CLEAR     53  40  61 NW8       29.80R
ROCKY MOUNT    MOCLDY    60  59  96 W3        29.74R
$$

VAZ100-211000-
MARINE

STATION/POSITION TIME  TEMP    WIND        PRES    WAVE   SWELL
                       AIR SEA DIR/SP/G            HT/PER HT/PER
                 (UTC) (F)     (DEG/KT/KT) (MB)    (FT/S) (FT/S)
BRANDYWINE LGT   0800   58 51  350/ 17/ 19 1001.9R
CAPE MAY NJ      0800   59 55  320/ 13/ 19 1001.5R
LEWES DE         0800   62 51  320/ 14/ 20 1002.1R
15NM E FENWICK I 0850   52 47              1002.2R   7/ 8
OCEAN-CITY-INLET 0800   53 50  220/ 11/ 13 1002.1R
WACHAPREAGUE VA  0800   68 65  240/  7/ 11 1003.4R
THOMAS POINT MD  0900   60 53  300/ 12/ 13 1004.2R
GOOSES REEF MD   0900   57 58  360/  2/  2   N/A     1/ 3
COVE POINT MD    0800   61     350/ 11/ 12 1003.2R
SOLOMONS ISLAND  0800      56                N/A
BISHOPS HEAD MD  0800   64 63  240/ 13/ 16 1002.4R
PINEY POINT MD   0800          360/  7/  8   N/A
CAMBRIDGE MD     0800   62 60  330/  7/ 10 1003.3R
LEWISETTA VA     0800   67 58              1003.0R
RAPPAHANNOCK LGT 0800          250/ 17/ 20 1003.8R
STINGRAY PT      0900   66 58  260/ 12/ 16 1005.2R   1/ 2
YORK RVR RNG VA  0800   67     250/ 18/ 21 1002.9R
YORKTOWN VA      0800   68 60  240/ 13/ 16 1003.5R
DOMINION TERM VA 0800   66     240/ 23/ 30 1003.9R
KIPTOPEKE VA     0800      63  250/ 19/ 44   N/A
CHES BAY BRIDGE  0800   67 57  200/ 19/ 22 1003.2F
CAPE HENRY VA    0800   69     240/ 14/ 20 1002.6F
CHESAPEAKE LGHT  0800   65     230/ 23/ 25 1004.5S
WILLOUBY STN VA  0806   65     240/ 26/ 28 1004.5R
S CRANEY ISL VA  0800          250/ 18/ 29 1004.3R
CAPE HENRY BUOY  0828      54                N/A     4/ 8   2/11
1ST LANDING BUOY 0900   62     250/ 16/ 21 1004.2F   2/ 3
OFFSHORE WE BUOY 0811      49                N/A     5/ 8   3/ 8
64NM E OF VA BCH 0850   60 57  220/ 17/ 21 1004.7R   6/ 8   3/ 8
DUCK PIER NC     0800   69 49  220/ 15/ 18 1004.6R
44056 DUCK FRF   0811      53                N/A     3/ 7   2/11
OREGON INLET NC  0800   69 67  200/ 19/ 23 1006.1R
HATTERAS NC      0800   71 68  220/ 19/ 25 1006.5F
DIAMOND SHLS NC  0850   73 74  240/ 25/ 31 1006.7R   8/ 7   2/12
CAPE LOOKOUT NC  0900   66     240/ 15/ 19 1007.3F
$$



USA.gov is the U.S. government's official web portal to all federal, state and local government web resources and services.